Terminal Aerodrome Forecast
Issued by NWS North Platte, NE

Home | Current Version | Previous Version | Text Only | Print | Product List | Glossary Off
Versions: 1 2 3 4 5 6 7 8 9 10 11 12 13 14 15 16 17 18 19

000
FTUS43 KLBF 261700
TAFVTN
TAF
KVTN 261728Z 2618/2718 35015G21KT P6SM BKN010 BKN015
     FM262100 35013KT P6SM SCT150
     FM270000 33009KT P6SM SCT150
     FM271500 33012KT P6SM SCT100=

USA.gov is the U.S. government's official web portal to all federal, state and local government web resources and services.